Commerce, GA

10:34 AM EDT on August 31, 2016 (GMT -0400)
Jefferson

Weather History for K19A - April, 2013

Change the Weather History Date:

Friday, April 19, 2013

  Actual Average (KGVL) Record (KGVL)
Temperature  
Mean Temperature 58 °F 61 °F  
Max Temperature 69 °F 72 °F 87 °F (1955)
Min Temperature 46 °F 51 °F 28 °F (1983)
Degree Days  
Heating Degree Days 8 5  
Month to date heating degree days 132  
Since 1 July heating degree days 2984  
Cooling Degree Days 0 1  
Month to date cooling degree days 17  
Year to date cooling degree days 22  
Growing Degree Days 8 (Base 50)    
Moisture  
Dew Point 53 °F    
Average Humidity 79    
Maximum Humidity 94    
Minimum Humidity 57    
Precipitation  
Precipitation 0.00 in 0.12 in 3.77 in (1943)
Month to date precipitation 2.17  
Year to date precipitation 17.49  
Sea Level Pressure  
Sea Level Pressure 29.89 in    
Wind  
Wind Speed 8 mph (SW)    
Max Wind Speed 18 mph    
Max Gust Speed 25 mph    
Visibility 10 miles    
Events Rain    
T = Trace of Precipitation, MM = Missing Value Source: NWS Daily Summary

Daily Weather History Graph

Daily Weather History Graph

Search for Another Location

Airport or City:

Trip Planner

Search our weather history database for the weather conditions in past years. The results will help you decide how hot, cold, wet, or windy it might be!

Date:

Astronomy

Apr. 19, 2013 Rise Set
Actual Time 6:57 AM EDT 8:09 PM EDT
Civil Twilight 6:31 AM EDT 8:35 PM EDT
Nautical Twilight 6:01 AM EDT 9:06 PM EDT
Astronomical Twilight 5:28 AM EDT 9:38 PM EDT
Moon 2:08 PM EDT (4/19) 2:56 AM EDT (4/19)
Length of Visible Light 14h 03m
Length of Day
13h 11m
First Quarter, 61% of the Moon is Illuminated
Apr 19
First Quarter
Apr 25
Full
May 2
Last Quarter
May 9
New
May 18
First Quarter

Hourly Weather History & Observations

Time (EDT) Temp. Windchill Dew Point Humidity Pressure Visibility Wind Dir Wind Speed Gust Speed Precip Events Conditions
12:15 AM 68.0 °F - 53.6 °F 60% 29.95 in 10.0 mi SSE 5.8 mph - N/A   Clear
12:35 AM 68.0 °F - 53.6 °F 60% 29.95 in 10.0 mi SSE 6.9 mph - N/A   Scattered Clouds
12:55 AM 68.0 °F - 53.6 °F 60% 29.95 in 10.0 mi SSE 8.1 mph - N/A   Scattered Clouds
1:15 AM 68.0 °F - 55.4 °F 64% 29.93 in 10.0 mi SSE 6.9 mph - N/A   Scattered Clouds
1:35 AM 68.0 °F - 55.4 °F 64% 29.93 in 10.0 mi SSE 6.9 mph - N/A   Scattered Clouds
1:55 AM 68.0 °F - 55.4 °F 64% 29.93 in 10.0 mi South 9.2 mph - N/A   Mostly Cloudy
2:15 AM 68.0 °F - 55.4 °F 64% 29.92 in 10.0 mi South 6.9 mph - N/A   Overcast
2:55 AM 68.0 °F - 57.2 °F 68% 29.89 in 10.0 mi SSE 8.1 mph - N/A   Scattered Clouds
3:15 AM 68.0 °F - 59.0 °F 73% 29.89 in 10.0 mi SSE 6.9 mph - N/A   Scattered Clouds
3:35 AM 68.0 °F - 60.8 °F 78% 29.89 in 10.0 mi SSE 5.8 mph - N/A   Mostly Cloudy
3:55 AM 68.0 °F - 60.8 °F 78% 29.88 in 10.0 mi SSE 6.9 mph - N/A   Overcast
4:15 AM 66.2 °F - 60.8 °F 83% 29.87 in 10.0 mi South 8.1 mph - N/A   Overcast
4:35 AM 66.2 °F - 60.8 °F 83% 29.87 in 10.0 mi South 6.9 mph - N/A   Overcast
4:55 AM 66.2 °F - 62.6 °F 88% 29.86 in 10.0 mi SSE 8.1 mph - N/A   Mostly Cloudy
5:15 AM 64.4 °F - 62.6 °F 94% 29.85 in 10.0 mi SSE 6.9 mph - N/A   Scattered Clouds
5:35 AM 64.4 °F - 62.6 °F 94% 29.85 in 10.0 mi South 8.1 mph - N/A   Scattered Clouds
5:55 AM 64.4 °F - 62.6 °F 94% 29.86 in 10.0 mi South 6.9 mph - N/A   Mostly Cloudy
6:15 AM 64.4 °F - 62.6 °F 94% 29.86 in 10.0 mi South 5.8 mph - N/A   Overcast
6:35 AM 64.4 °F - 62.6 °F 94% 29.86 in 10.0 mi South 8.1 mph - N/A   Mostly Cloudy
6:55 AM 64.4 °F - 60.8 °F 88% 29.86 in 10.0 mi South 9.2 mph - N/A   Mostly Cloudy
7:15 AM 66.2 °F - 60.8 °F 83% 29.88 in 10.0 mi SSW 8.1 mph - N/A   Overcast
7:35 AM 66.2 °F - 60.8 °F 83% 29.89 in 10.0 mi South 6.9 mph - N/A   Overcast
7:55 AM 66.2 °F - 60.8 °F 83% 29.89 in 10.0 mi SSW 10.4 mph 17.3 mph N/A   Overcast
8:15 AM 66.2 °F - 60.8 °F 83% 29.89 in 7.0 mi SSW 11.5 mph 16.1 mph N/A   Overcast
8:35 AM 66.2 °F - 62.6 °F 88% 29.88 in 10.0 mi South 10.4 mph 16.1 mph N/A Rain Light Rain
8:55 AM 66.2 °F - 62.6 °F 88% 29.88 in 10.0 mi SSW 8.1 mph - N/A   Overcast
9:15 AM 66.2 °F - 62.6 °F 88% 29.86 in 10.0 mi South 9.2 mph - N/A   Overcast
9:35 AM 66.2 °F - 62.6 °F 88% 29.84 in 10.0 mi South 12.7 mph 16.1 mph N/A   Light Drizzle
9:55 AM 68.0 °F - 62.6 °F 83% 29.84 in 10.0 mi South 10.4 mph 17.3 mph N/A   Overcast
10:15 AM 68.0 °F - 62.6 °F 83% 29.83 in 10.0 mi South 9.2 mph - N/A   Overcast
10:35 AM 68.0 °F - 62.6 °F 83% 29.83 in 10.0 mi South 12.7 mph 19.6 mph N/A   Overcast
10:55 AM 68.0 °F - 62.6 °F 83% 29.82 in 10.0 mi South 8.1 mph - N/A   Overcast
11:35 AM 68.0 °F - 64.4 °F 88% 29.82 in 10.0 mi South 12.7 mph 18.4 mph N/A   Light Drizzle
11:55 AM 69.8 °F - 64.4 °F 83% 29.82 in 10.0 mi South 11.5 mph 19.6 mph N/A   Overcast
12:15 PM 69.8 °F - 64.4 °F 83% 29.83 in 10.0 mi WSW 12.7 mph 24.2 mph N/A   Overcast
12:35 PM 60.8 °F - 57.2 °F 88% 29.85 in 7.0 mi WNW 18.4 mph 23.0 mph N/A Rain Rain
12:55 PM 59.0 °F - 57.2 °F 94% 29.86 in 5.0 mi WNW 11.5 mph 17.3 mph N/A Rain Heavy Rain
1:15 PM 59.0 °F - 57.2 °F 94% 29.86 in 4.0 mi WNW 8.1 mph - N/A Rain Rain
1:35 PM 59.0 °F - 55.4 °F 88% 29.86 in 7.0 mi WNW 8.1 mph - N/A Rain Rain
1:55 PM 57.2 °F - 55.4 °F 94% 29.88 in 2.5 mi West 6.9 mph 18.4 mph N/A Rain Heavy Rain
2:15 PM 55.4 °F - 53.6 °F 94% 29.89 in 10.0 mi West 13.8 mph 18.4 mph N/A Rain Light Rain
2:35 PM 53.6 °F - 50.0 °F 88% 29.89 in 10.0 mi West 15.0 mph 25.3 mph N/A Rain Light Rain
2:55 PM 53.6 °F - 50.0 °F 88% 29.88 in 10.0 mi West 8.1 mph 16.1 mph N/A Rain Light Rain
3:15 PM 53.6 °F - 50.0 °F 88% 29.88 in 10.0 mi West 11.5 mph - N/A Rain Light Rain
3:35 PM 53.6 °F - 50.0 °F 88% 29.86 in 10.0 mi WSW 9.2 mph - N/A   Mostly Cloudy
3:55 PM 53.6 °F - 50.0 °F 88% 29.88 in 10.0 mi West 8.1 mph - N/A   Scattered Clouds
4:15 PM 53.6 °F - 50.0 °F 88% 29.89 in 10.0 mi West 11.5 mph 16.1 mph N/A   Mostly Cloudy
4:35 PM 53.6 °F - 46.4 °F 77% 29.88 in 10.0 mi West 6.9 mph 19.6 mph N/A   Scattered Clouds
4:55 PM 53.6 °F - 48.2 °F 82% 29.93 in 10.0 mi West 11.5 mph 16.1 mph N/A   Scattered Clouds
5:15 PM 51.8 °F - 42.8 °F 71% 29.92 in 10.0 mi West 6.9 mph 16.1 mph N/A   Overcast
5:35 PM 51.8 °F - 41.0 °F 67% 29.89 in 10.0 mi WNW 9.2 mph - N/A Rain Light Rain
5:55 PM 51.8 °F - 42.8 °F 71% 29.91 in 10.0 mi West 11.5 mph - N/A Rain Light Rain
6:15 PM 50.0 °F - 44.6 °F 82% 29.89 in 10.0 mi WSW 6.9 mph 16.1 mph N/A Rain Light Rain
6:35 PM 50.0 °F - 44.6 °F 82% 29.90 in 10.0 mi WSW 11.5 mph 17.3 mph N/A   Mostly Cloudy
6:55 PM 50.0 °F - 42.8 °F 76% 29.89 in 10.0 mi WSW 11.5 mph - N/A   Mostly Cloudy
7:15 PM 50.0 °F - 42.8 °F 76% 29.90 in 10.0 mi West 15.0 mph - N/A   Scattered Clouds
7:35 PM 50.0 °F - 41.0 °F 71% 29.88 in 10.0 mi West 11.5 mph 17.3 mph N/A   Clear
7:55 PM 50.0 °F - 41.0 °F 71% 29.89 in 10.0 mi West 10.4 mph 16.1 mph N/A   Clear
8:15 PM 50.0 °F - 42.8 °F 76% 29.89 in 10.0 mi West 8.1 mph - N/A   Clear
8:35 PM 48.2 °F - 42.8 °F 82% 29.91 in 10.0 mi West 10.4 mph - N/A   Clear
8:55 PM 50.0 °F - 41.0 °F 71% 29.93 in 10.0 mi West 6.9 mph - N/A   Clear
9:15 PM 50.0 °F - 39.2 °F 66% 29.96 in 10.0 mi West 8.1 mph - N/A   Clear
9:35 PM 48.2 °F - 41.0 °F 76% 29.97 in 10.0 mi West 6.9 mph - N/A   Clear
9:55 PM 48.2 °F - 37.4 °F 66% 29.98 in 10.0 mi West 5.8 mph - N/A   Clear
10:15 PM 46.4 °F 42.9 °F 37.4 °F 71% 29.98 in 10.0 mi West 6.9 mph - N/A   Clear
10:35 PM 48.2 °F - 33.8 °F 58% 29.99 in 10.0 mi WNW 11.5 mph 16.1 mph N/A   Clear
10:55 PM 48.2 °F - 33.8 °F 58% 29.99 in 10.0 mi WNW 10.4 mph - N/A   Clear
11:15 PM 46.4 °F 42.4 °F 32.0 °F 57% 30.00 in 10.0 mi WNW 8.1 mph - N/A   Clear
11:35 PM 46.4 °F 43.5 °F 33.8 °F 62% 30.00 in 10.0 mi WNW 5.8 mph - N/A   Clear
11:55 PM 46.4 °F 41.9 °F 32.0 °F 57% 30.01 in 10.0 mi WNW 9.2 mph - N/A   Clear